| time (UTC) | temp C | wind direction | speed KPH | gust KPH | rain 1hr cm | rain 24hr cm | rain mn cm | humidity % | barometer mb |
| 20260903005521 | 27 | 263 | 0.0 | 0.0 | 0.00 | 0.00 | 0.00 | 87 | 1013.5 |
| 20260902235536 | 27 | 173 | 0.0 | 0.0 | 0.00 | 0.00 | 0.00 | 86 | 1013.6 |
| 20260902234347 | 28 | 173 | 0.0 | 0.0 | 0.00 | 0.00 | 0.00 | 85 | 1013.6 |
| 20260902233154 | 28 | 173 | 0.0 | 0.0 | 0.00 | 0.00 | 0.00 | 85 | 1013.6 |
| 20260902225531 | 30 | 173 | 0.0 | 0.0 | 0.00 | 0.00 | 0.00 | 80 | 1013.6 |
| 20260902224251 | 31 | 178 | 0.0 | 3.2 | 0.00 | 0.00 | 0.00 | 77 | 1013.6 |
| 20260902221837 | 31 | 62 | 0.0 | 0.0 | 0.00 | 0.00 | 0.00 | 78 | 1013.6 |
| 20260902215413 | 32 | 192 | 0.0 | 6.4 | 0.00 | 0.00 | 0.00 | 72 | 1013.6 |
| 20260902211839 | 33 | 59 | 0.0 | 9.7 | 0.00 | 0.00 | 0.00 | 68 | 1013.8 |
| 20260902205400 | 33 | 246 | 0.0 | 11.3 | 0.00 | 0.00 | 0.00 | 64 | 1013.8 |
| 20260902200520 | 33 | 68 | 1.6 | 17.7 | 0.00 | 0.00 | 0.00 | 66 | 1014.1 |
| 20260902195330 | 33 | 267 | 1.6 | 17.7 | 0.00 | 0.00 | 0.00 | 65 | 1014.1 |
| 20260902184124 | 33 | 72 | 1.6 | 9.7 | 0.00 | 0.00 | 0.00 | 66 | 1014.6 |
| 20260902180526 | 33 | 291 | 1.6 | 14.5 | 0.00 | 0.00 | 0.00 | 64 | 1014.9 |
| 20260902175308 | 33 | 164 | 1.6 | 12.9 | 0.00 | 0.00 | 0.00 | 65 | 1015.0 |
| 20260902171634 | 32 | 212 | 1.6 | 14.5 | 0.00 | 0.00 | 0.00 | 70 | 1015.3 |
| 20260902170404 | 32 | 89 | 1.6 | 12.9 | 0.00 | 0.00 | 0.00 | 67 | 1015.4 |
| 20260902165156 | 32 | 127 | 1.6 | 12.9 | 0.00 | 0.00 | 0.00 | 68 | 1015.5 |
| 20260902163928 | 32 | 173 | 1.6 | 11.3 | 0.00 | 0.00 | 0.00 | 67 | 1015.6 |
| 20260902162649 | 32 | 67 | 1.6 | 12.9 | 0.00 | 0.00 | 0.00 | 71 | 1015.7 |
| 20260902161455 | 31 | 147 | 1.6 | 14.5 | 0.00 | 0.00 | 0.00 | 69 | 1015.8 |
| 20260902153807 | 31 | 217 | 1.6 | 12.9 | 0.00 | 0.00 | 0.00 | 72 | 1015.8 |
| 20260902143826 | 29 | 319 | 0.0 | 6.4 | 0.00 | 0.00 | 0.00 | 77 | 1015.9 |
| 20260902133657 | 26 | 173 | 0.0 | 6.4 | 0.00 | 0.00 | 0.00 | 85 | 1016.0 |
| 20260902132458 | 25 | 53 | 0.0 | 6.4 | 0.00 | 0.00 | 0.00 | 91 | 1016.3 |
| 20260902131317 | 24 | 151 | 0.0 | 0.0 | 0.00 | 0.00 | 0.00 | 93 | 1016.4 |
| 20260902123653 | 22 | 257 | 0.0 | 3.2 | 0.00 | 0.00 | 0.00 | 94 | 1016.2 |
| 20260902120114 | 22 | 183 | 0.0 | 0.0 | 0.00 | 0.00 | 0.00 | 94 | 1016.4 |
| 20260902113656 | 21 | 183 | 0.0 | 0.0 | 0.00 | 0.00 | 0.00 | 93 | 1016.2 |
| 20260902110011 | 21 | 183 | 0.0 | 0.0 | 0.00 | 0.00 | 0.00 | 93 | 1015.9 |
| 20260902104735 | 21 | 183 | 0.0 | 0.0 | 0.00 | 0.00 | 0.00 | 93 | 1015.7 |
| 20260902103512 | 21 | 183 | 0.0 | 0.0 | 0.00 | 0.00 | 0.00 | 93 | 1015.6 |
| 20260902102317 | 21 | 183 | 0.0 | 0.0 | 0.00 | 0.00 | 0.00 | 93 | 1015.6 |
| 20260902101142 | 21 | 183 | 0.0 | 0.0 | 0.00 | 0.00 | 0.00 | 93 | 1015.4 |
| 20260902095956 | 22 | 183 | 0.0 | 0.0 | 0.00 | 0.00 | 0.00 | 93 | 1015.3 |
| 20260902085859 | 22 | 183 | 0.0 | 0.0 | 0.00 | 0.00 | 0.00 | 93 | 1015.2 |
| 20260902082220 | 22 | 183 | 0.0 | 0.0 | 0.00 | 0.00 | 0.00 | 93 | 1015.2 |
| 20260902080958 | 22 | 183 | 0.0 | 0.0 | 0.00 | 0.00 | 0.00 | 93 | 1015.2 |
| 20260902075812 | 22 | 183 | 0.0 | 0.0 | 0.00 | 0.00 | 0.00 | 93 | 1015.2 |
| 20260902063423 | 23 | 183 | 0.0 | 0.0 | 0.00 | 0.00 | 0.00 | 93 | 1015.1 |
| 20260902062245 | 23 | 183 | 0.0 | 0.0 | 0.00 | 0.00 | 0.00 | 93 | 1015.2 |
| 20260902055753 | 23 | 183 | 0.0 | 0.0 | 0.00 | 0.00 | 0.00 | 93 | 1015.3 |
| 20260902053418 | 23 | 210 | 0.0 | 0.0 | 0.00 | 0.00 | 0.00 | 93 | 1015.3 |
| 20260902052236 | 24 | 210 | 0.0 | 0.0 | 0.00 | 0.00 | 0.00 | 92 | 1015.3 |
| 20260902045831 | 24 | 210 | 0.0 | 0.0 | 0.00 | 0.00 | 0.00 | 92 | 1015.2 |
| 20260902042137 | 25 | 213 | 0.0 | 0.0 | 0.00 | 0.00 | 0.00 | 92 | 1015.2 |
| 20260902041003 | 25 | 210 | 0.0 | 0.0 | 0.00 | 0.00 | 0.00 | 92 | 1015.3 |
| 20260902035745 | 25 | 169 | 0.0 | 1.6 | 0.00 | 0.00 | 0.00 | 92 | 1015.2 |
| 20260902033330 | 25 | 315 | 0.0 | 0.0 | 0.00 | 0.00 | 0.00 | 92 | 1015.2 |
| 20260902032130 | 25 | 315 | 0.0 | 0.0 | 0.00 | 0.00 | 0.00 | 92 | 1015.2 |
| 20260902024436 | 25 | 315 | 0.0 | 0.0 | 0.00 | 0.00 | 0.00 | 92 | 1015.2 |
| 20260902022030 | 25 | 315 | 0.0 | 0.0 | 0.00 | 0.00 | 0.00 | 92 | 1015.1 |
| 20260902020853 | 26 | 315 | 0.0 | 0.0 | 0.00 | 0.00 | 0.00 | 92 | 1015.1 |